Location: Burla
(50.9568°N, 10.4983°E)
Time: 21:36:46
(UTC+00:00)

Cosmos 44 - Pass Details

Date: 18 January 2026
Orbit: 570 x 780 km, 65.1° (Epoch: 18 February)

Event Time Altitude Azimuth Distance (km) Brightness Sun altitude
Exits shadow 04:08:46 74° 50° (NE) 811 3.6 -28.2°
Drops below altitude 10° 04:14:08 10° 133° (SE) 2,330 6.5 -27.4°
Sets 04:16:33 0° 135° (SE) 3,251 7.4 -27.0°
